Lafayette, CO

5:22 PM MDT on August 29, 2016 (GMT -0600)
Erie Municipal Airport

Weather History for KEIK - January, 2014

Change the Weather History Date:

Saturday, January 11, 2014

  Actual Average (KBDU) Record (KBDU)
Temperature  
Mean Temperature 42 °F -  
Max Temperature 59 °F - 59 °F (2014)
Min Temperature 24 °F - 12 °F (2016)
Degree Days  
Heating Degree Days 24    
Month to date heating degree days  
Cooling Degree Days 0    
Month to date cooling degree days  
Moisture  
Dew Point 21 °F    
Average Humidity 42    
Maximum Humidity 69    
Minimum Humidity 22    
Precipitation  
Precipitation 0.00 in - 0.00 in (2016)
Sea Level Pressure  
Sea Level Pressure 29.81 in    
Wind  
Wind Speed 6 mph (West)    
Max Wind Speed 25 mph    
Max Gust Speed 40 mph    
Visibility 10 miles    
Events      
T = Trace of Precipitation, MM = Missing Value Source: NWS Daily Summary

Daily Weather History Graph

Daily Weather History Graph

Search for Another Location

Airport or City:

Trip Planner

Search our weather history database for the weather conditions in past years. The results will help you decide how hot, cold, wet, or windy it might be!

Date:

Astronomy

Jan. 11, 2014 Rise Set
Actual Time 7:21 AM MST 4:55 PM MST
Civil Twilight 6:51 AM MST 5:25 PM MST
Nautical Twilight 6:17 AM MST 5:58 PM MST
Astronomical Twilight 5:45 AM MST 6:31 PM MST
Moon 1:41 PM MST (1/11) 3:28 AM MST (1/11)
Length of Visible Light 10h 33m
Length of Day
9h 33m
Waxing Gibbous, 83% of the Moon is Illuminated
Jan 11
Waxing Gibbous
Jan 15
Full
Jan 23
Last Quarter
Jan 30
New
Feb 6
First Quarter

Hourly Weather History & Observations

Time (MST) Temp. Windchill Dew Point Humidity Pressure Visibility Wind Dir Wind Speed Gust Speed Precip Events Conditions
12:14 AM 32.5 °F - 14.5 °F 48% 29.86 in 10.0 mi Calm Calm - N/A   Clear
12:34 AM 31.8 °F - 14.9 °F 50% 29.84 in 10.0 mi Calm Calm - N/A   Clear
12:54 AM 28.4 °F - 14.7 °F 57% 29.84 in 10.0 mi Calm Calm - N/A   Clear
1:14 AM 29.3 °F - 14.9 °F 55% 29.84 in 10.0 mi Calm Calm - N/A   Clear
1:34 AM 28.0 °F - 15.1 °F 58% 29.85 in 10.0 mi Calm Calm - N/A   Clear
1:54 AM 24.6 °F - 15.8 °F 69% 29.87 in 10.0 mi Calm Calm - N/A   Clear
2:14 AM 24.3 °F - 14.4 °F 66% 29.88 in 10.0 mi Calm Calm - N/A   Clear
2:34 AM 24.6 °F - 13.6 °F 63% 29.88 in 10.0 mi Calm Calm - N/A   Clear
2:54 AM 26.1 °F - 14.7 °F 62% 29.88 in 10.0 mi Calm Calm - N/A   Clear
3:14 AM 30.9 °F 25.2 °F 16.0 °F 54% 29.87 in 10.0 mi WNW 5.8 mph - N/A   Clear
3:34 AM 37.8 °F 27.4 °F 19.9 °F 49% 29.87 in 10.0 mi WNW 20.7 mph 33.4 mph N/A   Clear
3:54 AM 38.3 °F 29.3 °F 20.8 °F 50% 29.87 in 10.0 mi WNW 16.1 mph 25.3 mph N/A   Clear
4:14 AM 34.2 °F 27.5 °F 17.8 °F 51% 29.88 in 10.0 mi NW 8.1 mph - N/A   Clear
4:34 AM 31.8 °F 24.6 °F 17.1 °F 55% 29.87 in 10.0 mi NW 8.1 mph - N/A   Clear
4:54 AM 32.9 °F 25.9 °F 18.1 °F 55% 29.87 in 10.0 mi West 8.1 mph - N/A   Clear
5:14 AM 27.3 °F - 15.6 °F 61% 29.87 in 10.0 mi Calm Calm - N/A   Clear
5:34 AM 26.6 °F 20.0 °F 16.2 °F 65% 29.87 in 10.0 mi WSW 5.8 mph - N/A   Clear
5:54 AM 29.3 °F 20.2 °F 18.0 °F 63% 29.88 in 10.0 mi West 10.4 mph - N/A   Clear
6:14 AM 39.4 °F 32.3 °F 19.6 °F 45% 29.89 in 10.0 mi West 11.5 mph - N/A   Clear
6:34 AM 39.6 °F 32.5 °F 21.2 °F 48% 29.89 in 10.0 mi WNW 11.5 mph - N/A   Clear
6:54 AM 36.9 °F 33.1 °F 19.2 °F 49% 29.89 in 10.0 mi North 4.6 mph - N/A   Clear
7:14 AM 32.4 °F 25.3 °F 19.6 °F 59% 29.88 in 10.0 mi West 8.1 mph - N/A   Clear
7:34 AM 35.6 °F 28.0 °F 20.5 °F 54% 29.88 in 10.0 mi NW 10.4 mph - N/A   Clear
7:54 AM 36.7 °F 31.2 °F 21.2 °F 54% 29.89 in 10.0 mi SSE 6.9 mph - N/A   Clear
8:14 AM 40.5 °F 34.6 °F 21.4 °F 47% 29.90 in 10.0 mi SSE 9.2 mph - N/A   Clear
8:34 AM 41.2 °F - 22.6 °F 48% 29.89 in 10.0 mi Calm Calm - N/A   Clear
8:54 AM 43.9 °F - 22.8 °F 43% 29.90 in 10.0 mi Calm Calm - N/A   Clear
9:14 AM 45.3 °F 44.0 °F 22.6 °F 41% 29.90 in 10.0 mi ENE 3.5 mph - N/A   Clear
9:34 AM 48.2 °F - 23.0 °F 37% 29.91 in 10.0 mi Calm Calm - N/A   Clear
9:54 AM 51.8 °F - 21.7 °F 31% 29.90 in 10.0 mi SSW 6.9 mph - N/A   Clear
10:14 AM 52.7 °F - 21.4 °F 29% 29.90 in 10.0 mi WSW 6.9 mph - N/A   Clear
10:34 AM 48.6 °F - 22.5 °F 36% 29.90 in 10.0 mi NNW 12.7 mph 17.3 mph N/A   Clear
10:54 AM 41.7 °F 34.8 °F 25.3 °F 52% 29.90 in 10.0 mi North 12.7 mph - N/A   Clear
11:14 AM 38.1 °F 32.9 °F 23.7 °F 56% 29.89 in 10.0 mi North 6.9 mph - N/A   Clear
11:34 AM 42.8 °F 39.3 °F 25.5 °F 51% 29.86 in 10.0 mi NW 5.8 mph - N/A   Clear
11:54 AM 51.1 °F - 24.3 °F 35% 29.84 in 10.0 mi WNW 18.4 mph 28.8 mph N/A   Clear
12:14 PM 52.3 °F - 23.5 °F 33% 29.82 in 10.0 mi WNW 19.6 mph 32.2 mph N/A   Clear
12:34 PM 55.0 °F - 23.5 °F 30% 29.82 in 10.0 mi WNW 10.4 mph 17.3 mph N/A   Clear
12:54 PM 56.8 °F - 25.7 °F 30% 29.81 in 10.0 mi NW 4.6 mph - N/A   Clear
1:14 PM 54.0 °F - 23.2 °F 30% 29.81 in 10.0 mi North - - N/A   Clear
1:34 PM 53.6 °F - 25.3 °F 34% 29.80 in 10.0 mi North - - N/A   Clear
1:54 PM 54.1 °F - 25.9 °F 34% 29.79 in 10.0 mi NW 11.5 mph - N/A   Clear
2:14 PM 54.9 °F - 23.2 °F 29% 29.78 in 10.0 mi West 21.9 mph 40.3 mph N/A   Clear
2:34 PM 54.0 °F - 22.8 °F 30% 29.75 in 10.0 mi West 25.3 mph 34.5 mph N/A   Clear
2:54 PM 55.4 °F - 21.9 °F 27% 29.75 in 10.0 mi WSW 19.6 mph 25.3 mph N/A   Clear
3:14 PM 55.2 °F - 20.3 °F 26% 29.75 in 10.0 mi ESE 4.6 mph - N/A   Clear
3:34 PM 59.9 °F - 20.3 °F 22% 29.75 in 10.0 mi SW 4.6 mph - N/A   Clear
3:54 PM 58.5 °F - 22.1 °F 25% 29.73 in 10.0 mi North 3.5 mph - N/A   Clear
4:14 PM 58.1 °F - 21.0 °F 24% 29.74 in 10.0 mi ESE 10.4 mph - N/A   Clear
4:34 PM 57.7 °F - 19.6 °F 23% 29.74 in 10.0 mi SE 3.5 mph - N/A   Clear
4:54 PM 53.6 °F - 21.9 °F 29% 29.74 in 10.0 mi SSW 3.5 mph - N/A   Clear
5:14 PM 50.0 °F - 21.7 °F 33% 29.73 in 10.0 mi Calm Calm - N/A   Clear
5:34 PM 49.1 °F - 22.1 °F 35% 29.73 in 10.0 mi East 8.1 mph - N/A   Clear
5:54 PM 53.6 °F - 19.4 °F 26% 29.72 in 10.0 mi West 3.5 mph - N/A   Clear
6:14 PM 43.9 °F - 24.6 °F 47% 29.72 in 10.0 mi Calm Calm - N/A   Clear
6:34 PM 48.2 °F - 22.3 °F 36% 29.71 in 10.0 mi West 10.4 mph - N/A   Clear
6:54 PM 47.8 °F - 21.7 °F 36% 29.72 in 10.0 mi NW 6.9 mph - N/A   Clear
7:14 PM 44.8 °F - 23.5 °F 43% 29.73 in 10.0 mi Calm Calm - N/A   Clear
7:34 PM 46.4 °F - 21.9 °F 38% 29.73 in 10.0 mi Calm Calm - N/A   Clear
7:54 PM 51.3 °F - 19.9 °F 29% 29.72 in 10.0 mi WSW 12.7 mph 20.7 mph N/A   Clear
8:14 PM 54.0 °F - 19.4 °F 26% 29.73 in 10.0 mi West 11.5 mph 25.3 mph N/A   Clear
8:34 PM 52.9 °F - 19.8 °F 27% 29.72 in 10.0 mi West 21.9 mph 27.6 mph N/A   Clear
8:54 PM 52.9 °F - 19.9 °F 28% 29.72 in 10.0 mi West 23.0 mph 28.8 mph N/A   Clear
9:14 PM 52.9 °F - 19.6 °F 27% 29.72 in 10.0 mi West 19.6 mph 28.8 mph N/A   Clear
9:34 PM 51.8 °F - 20.7 °F 30% 29.71 in 10.0 mi WNW 11.5 mph 26.5 mph N/A   Clear
9:54 PM 49.8 °F - 19.9 °F 31% 29.71 in 10.0 mi Calm Calm - N/A   Clear
10:14 PM 40.6 °F 38.6 °F 22.8 °F 49% 29.69 in 10.0 mi South 3.5 mph - N/A   Clear
10:34 PM 44.1 °F 41.5 °F 22.6 °F 43% 29.69 in 10.0 mi SW 4.6 mph - N/A   Clear
10:54 PM 45.3 °F 40.6 °F 22.3 °F 40% 29.69 in 10.0 mi SSW 9.2 mph 21.9 mph N/A   Clear
11:14 PM 44.6 °F 43.1 °F 21.6 °F 40% 29.67 in 10.0 mi SE 3.5 mph - N/A   Clear
11:34 PM 40.6 °F 35.4 °F 23.2 °F 50% 29.65 in 10.0 mi South 8.1 mph - N/A   Clear
11:54 PM 40.8 °F 38.8 °F 22.6 °F 48% 29.63 in 10.0 mi SSW 3.5 mph - N/A   Clear